contact:dominique.lefevre@mio.osupytheas.fr, maurice.libes@osupytheas.fr, didier.mallarino@osupytheas.fr
Project:EMSO http://www.emso-fr.org/EMSO-France
Depth: 2436.0 m
Title:EMSO Ligure Ouest : Data MII capteur MICROCAT
DateTime_Computer,Latitude,Longitude,Temperature,Conductivity,Pressure,DateTime_Instrument
DateTime_Computer,Latitude,Longitude,degC,S m-1,dbar,DateTime_Instrument
2020-03-13T00:00:04Z,42.805,6.029,13.2982,4.59991,2470.03,2020-3-13T02:00:41Z
2020-03-13T00:03:07Z,42.805,6.029,13.2983,4.59995,2470.017,2020-3-13T02:03:44Z
2020-03-13T00:06:10Z,42.805,6.029,13.2980,4.60001,2470.053,2020-3-13T02:06:47Z
2020-03-13T00:09:13Z,42.805,6.029,13.2983,4.59999,2470.053,2020-3-13T02:09:50Z
2020-03-13T00:12:17Z,42.805,6.029,13.2972,4.59993,2470.017,2020-3-13T02:12:54Z
2020-03-13T00:15:20Z,42.805,6.029,13.2976,4.59988,2470.007,2020-3-13T02:15:57Z
2020-03-13T00:18:23Z,42.805,6.029,13.2983,4.59995,2470.03,2020-3-13T02:19:00Z
2020-03-13T00:21:26Z,42.805,6.029,13.2977,4.59993,2469.993,2020-3-13T02:22:03Z
2020-03-13T00:24:30Z,42.805,6.029,13.2982,4.59990,2470.017,2020-3-13T02:25:07Z
2020-03-13T00:27:33Z,42.805,6.029,13.2976,4.59992,2470.007,2020-3-13T02:28:10Z
2020-03-13T00:30:36Z,42.805,6.029,13.2988,4.60001,2470.03,2020-3-13T02:31:13Z
2020-03-13T00:33:39Z,42.805,6.029,13.2980,4.59985,2470.007,2020-3-13T02:34:16Z
2020-03-13T00:36:43Z,42.805,6.029,13.2976,4.59990,2469.993,2020-3-13T02:37:20Z
2020-03-13T00:39:46Z,42.805,6.029,13.2986,4.59991,2469.97,2020-3-13T02:40:23Z
2020-03-13T00:42:49Z,42.805,6.029,13.2980,4.59996,2469.993,2020-3-13T02:43:26Z
2020-03-13T00:45:52Z,42.805,6.029,13.2981,4.59998,2469.984,2020-3-13T02:46:29Z
2020-03-13T00:48:56Z,42.805,6.029,13.2979,4.59982,2469.993,2020-3-13T02:49:33Z
2020-03-13T00:51:59Z,42.805,6.029,13.2974,4.59981,2469.984,2020-3-13T02:52:36Z
2020-03-13T00:55:02Z,42.805,6.029,13.2978,4.60000,2469.984,2020-3-13T02:55:39Z
2020-03-13T00:58:05Z,42.805,6.029,13.2984,4.59993,2469.984,2020-3-13T02:58:42Z
2020-03-13T01:01:09Z,42.805,6.029,13.2981,4.59996,2469.993,2020-3-13T03:01:46Z
2020-03-13T01:04:12Z,42.805,6.029,13.2986,4.59995,2469.97,2020-3-13T03:04:49Z
2020-03-13T01:07:15Z,42.805,6.029,13.2975,4.59986,2470.007,2020-3-13T03:07:52Z
2020-03-13T01:10:18Z,42.805,6.029,13.2976,4.59990,2469.97,2020-3-13T03:10:55Z
2020-03-13T01:13:22Z,42.805,6.029,13.2982,4.59999,2469.97,2020-3-13T03:13:59Z
2020-03-13T01:16:25Z,42.805,6.029,13.2982,4.60001,2469.947,2020-3-13T03:17:02Z
2020-03-13T01:19:28Z,42.805,6.029,13.2983,4.59986,2469.97,2020-3-13T03:20:05Z
2020-03-13T01:22:31Z,42.805,6.029,13.2980,4.59994,2469.947,2020-3-13T03:23:08Z
2020-03-13T01:25:35Z,42.805,6.029,13.2982,4.60006,2469.97,2020-3-13T03:26:12Z
2020-03-13T01:28:38Z,42.805,6.029,13.2984,4.59990,2469.96,2020-3-13T03:29:15Z
2020-03-13T01:31:41Z,42.805,6.029,13.2979,4.59990,2469.947,2020-3-13T03:32:18Z
2020-03-13T01:34:44Z,42.805,6.029,13.2982,4.59994,2469.947,2020-3-13T03:35:21Z
2020-03-13T01:37:48Z,42.805,6.029,13.2980,4.59988,2469.97,2020-3-13T03:38:25Z
2020-03-13T01:40:51Z,42.805,6.029,13.2987,4.59989,2469.96,2020-3-13T03:41:28Z
2020-03-13T01:43:54Z,42.805,6.029,13.2981,4.59993,2469.97,2020-3-13T03:44:31Z
2020-03-13T01:46:57Z,42.805,6.029,13.2985,4.59994,2469.96,2020-3-13T03:47:34Z
2020-03-13T01:50:01Z,42.805,6.029,13.2976,4.59988,2469.923,2020-3-13T03:50:38Z
2020-03-13T01:53:04Z,42.805,6.029,13.2978,4.59976,2469.947,2020-3-13T03:53:41Z
2020-03-13T01:56:07Z,42.805,6.029,13.2979,4.59982,2469.923,2020-3-13T03:56:44Z
2020-03-13T01:59:11Z,42.805,6.029,13.2980,4.59996,2469.947,2020-3-13T03:59:48Z
2020-03-13T02:02:14Z,42.805,6.029,13.2979,4.59989,2469.923,2020-3-13T04:02:51Z
2020-03-13T02:05:17Z,42.805,6.029,13.2977,4.59982,2469.923,2020-3-13T04:05:54Z
2020-03-13T02:08:21Z,42.805,6.029,13.2974,4.59985,2469.937,2020-3-13T04:08:57Z
2020-03-13T02:11:24Z,42.805,6.029,13.2983,4.60001,2469.923,2020-3-13T04:12:01Z
2020-03-13T02:14:27Z,42.805,6.029,13.2979,4.59994,2469.914,2020-3-13T04:15:04Z
2020-03-13T02:17:30Z,42.805,6.029,13.2982,4.59991,2469.937,2020-3-13T04:18:07Z
2020-03-13T02:20:33Z,42.805,6.029,13.2978,4.59989,2469.923,2020-3-13T04:21:10Z
2020-03-13T02:23:37Z,42.805,6.029,13.2979,4.59989,2469.923,2020-3-13T04:24:14Z
2020-03-13T02:26:40Z,42.805,6.029,13.2984,4.59992,2469.96,2020-3-13T04:27:17Z
2020-03-13T02:29:43Z,42.805,6.029,13.2976,4.59985,2469.914,2020-3-13T04:30:20Z
2020-03-13T02:32:46Z,42.805,6.029,13.2986,4.59992,2469.923,2020-3-13T04:33:23Z
2020-03-13T02:35:50Z,42.805,6.029,13.2979,4.59999,2469.9,2020-3-13T04:36:27Z
2020-03-13T02:38:53Z,42.805,6.029,13.2982,4.59989,2469.96,2020-3-13T04:39:30Z
2020-03-13T02:41:56Z,42.805,6.029,13.2980,4.59990,2469.937,2020-3-13T04:42:33Z
2020-03-13T02:45:00Z,42.805,6.029,13.2976,4.59994,2469.9,2020-3-13T04:45:36Z
2020-03-13T02:48:03Z,42.805,6.029,13.2980,4.59980,2469.923,2020-3-13T04:48:40Z
2020-03-13T02:51:06Z,42.805,6.029,13.2980,4.59983,2469.89,2020-3-13T04:51:43Z
2020-03-13T02:54:09Z,42.805,6.029,13.2979,4.59991,2469.876,2020-3-13T04:54:46Z
2020-03-13T02:57:13Z,42.805,6.029,13.2974,4.59992,2469.914,2020-3-13T04:57:50Z
2020-03-13T03:00:16Z,42.805,6.029,13.2978,4.59986,2469.914,2020-3-13T05:00:53Z
2020-03-13T03:03:19Z,42.805,6.029,13.2980,4.59989,2469.937,2020-3-13T05:03:56Z
2020-03-13T03:06:22Z,42.805,6.029,13.2983,4.59991,2469.914,2020-3-13T05:06:59Z
2020-03-13T03:09:25Z,42.805,6.029,13.2981,4.59985,2469.914,2020-3-13T05:10:02Z
2020-03-13T03:12:29Z,42.805,6.029,13.2980,4.59992,2469.876,2020-3-13T05:13:06Z
2020-03-13T03:15:32Z,42.805,6.029,13.2983,4.60000,2469.9,2020-3-13T05:16:09Z
2020-03-13T03:18:35Z,42.805,6.029,13.2973,4.59983,2469.937,2020-3-13T05:19:12Z
2020-03-13T03:21:38Z,42.805,6.029,13.2979,4.59993,2469.89,2020-3-13T05:22:15Z
2020-03-13T03:24:42Z,42.805,6.029,13.2977,4.59983,2469.876,2020-3-13T05:25:19Z
2020-03-13T03:27:45Z,42.805,6.029,13.2976,4.59986,2469.867,2020-3-13T05:28:22Z
2020-03-13T03:30:48Z,42.805,6.029,13.2975,4.59985,2469.876,2020-3-13T05:31:25Z
2020-03-13T03:33:51Z,42.805,6.029,13.2974,4.59985,2469.876,2020-3-13T05:34:28Z
2020-03-13T03:36:55Z,42.805,6.029,13.2976,4.59976,2469.89,2020-3-13T05:37:32Z
2020-03-13T03:39:58Z,42.805,6.029,13.2979,4.59983,2469.886,2020-3-13T05:40:35Z
2020-03-13T03:43:01Z,42.805,6.029,13.2976,4.59981,2469.9,2020-3-13T05:43:38Z
2020-03-13T03:46:05Z,42.805,6.029,13.2978,4.59982,2469.914,2020-3-13T05:46:42Z
2020-03-13T03:49:08Z,42.805,6.029,13.2979,4.59981,2469.9,2020-3-13T05:49:45Z
2020-03-13T03:52:11Z,42.805,6.029,13.2976,4.59986,2469.89,2020-3-13T05:52:48Z
2020-03-13T03:55:14Z,42.805,6.029,13.2976,4.59981,2469.867,2020-3-13T05:55:51Z
2020-03-13T03:58:17Z,42.805,6.029,13.2974,4.59982,2469.876,2020-3-13T05:58:54Z
2020-03-13T04:01:21Z,42.805,6.029,13.2976,4.59985,2469.853,2020-3-13T06:01:58Z
2020-03-13T04:04:24Z,42.805,6.029,13.2975,4.59981,2469.876,2020-3-13T06:05:01Z
2020-03-13T04:07:27Z,42.805,6.029,13.2971,4.59983,2469.914,2020-3-13T06:08:04Z
2020-03-13T04:10:30Z,42.805,6.029,13.2974,4.59976,2469.876,2020-3-13T06:11:07Z
2020-03-13T04:13:34Z,42.805,6.029,13.2978,4.59977,2469.886,2020-3-13T06:14:11Z
2020-03-13T04:16:37Z,42.805,6.029,13.2976,4.59985,2469.9,2020-3-13T06:17:14Z
2020-03-13T04:19:40Z,42.805,6.029,13.2977,4.59988,2469.876,2020-3-13T06:20:17Z
2020-03-13T04:22:43Z,42.805,6.029,13.2975,4.59986,2469.914,2020-3-13T06:23:20Z
2020-03-13T04:25:47Z,42.805,6.029,13.2977,4.59991,2469.9,2020-3-13T06:26:24Z
2020-03-13T04:28:50Z,42.805,6.029,13.2974,4.59983,2469.876,2020-3-13T06:29:27Z
2020-03-13T04:31:53Z,42.805,6.029,13.2976,4.59982,2469.9,2020-3-13T06:32:30Z
2020-03-13T04:34:56Z,42.805,6.029,13.2976,4.59987,2469.876,2020-3-13T06:35:33Z
2020-03-13T04:38:00Z,42.805,6.029,13.2971,4.59980,2469.876,2020-3-13T06:38:37Z
2020-03-13T04:41:03Z,42.805,6.029,13.2971,4.59979,2469.876,2020-3-13T06:41:40Z
2020-03-13T04:44:06Z,42.805,6.029,13.2976,4.59984,2469.9,2020-3-13T06:44:43Z
2020-03-13T04:47:10Z,42.805,6.029,13.2978,4.59988,2469.876,2020-3-13T06:47:47Z
2020-03-13T04:50:13Z,42.805,6.029,13.2973,4.59979,2469.867,2020-3-13T06:50:50Z
2020-03-13T04:53:16Z,42.805,6.029,13.2971,4.59981,2469.876,2020-3-13T06:53:53Z
2020-03-13T04:56:19Z,42.805,6.029,13.2976,4.59985,2469.876,2020-3-13T06:56:56Z
2020-03-13T04:59:22Z,42.805,6.029,13.2977,4.59986,2469.9,2020-3-13T06:59:59Z
2020-03-13T05:02:26Z,42.805,6.029,13.2976,4.59976,2469.9,2020-3-13T07:03:03Z
2020-03-13T05:05:29Z,42.805,6.029,13.2983,4.59986,2469.867,2020-3-13T07:06:06Z
2020-03-13T05:08:32Z,42.805,6.029,13.2974,4.59984,2469.923,2020-3-13T07:09:09Z
2020-03-13T05:11:35Z,42.805,6.029,13.2986,4.59991,2469.89,2020-3-13T07:12:12Z
2020-03-13T05:14:38Z,42.805,6.029,13.2975,4.59983,2469.923,2020-3-13T07:15:15Z
2020-03-13T05:17:42Z,42.805,6.029,13.2974,4.59981,2469.937,2020-3-13T07:18:19Z
2020-03-13T05:20:45Z,42.805,6.029,13.2977,4.59983,2469.923,2020-3-13T07:21:22Z
2020-03-13T05:23:48Z,42.805,6.029,13.2979,4.59989,2469.923,2020-3-13T07:24:25Z
2020-03-13T05:26:51Z,42.805,6.029,13.2979,4.59986,2469.876,2020-3-13T07:27:28Z
2020-03-13T05:29:55Z,42.805,6.029,13.2976,4.59986,2469.876,2020-3-13T07:30:32Z
2020-03-13T05:32:58Z,42.805,6.029,13.2973,4.59983,2469.853,2020-3-13T07:33:35Z
2020-03-13T05:36:01Z,42.805,6.029,13.2975,4.59979,2469.96,2020-3-13T07:36:38Z
2020-03-13T05:39:05Z,42.805,6.029,13.2979,4.59982,2469.923,2020-3-13T07:39:42Z
2020-03-13T05:42:08Z,42.805,6.029,13.2974,4.59989,2469.937,2020-3-13T07:42:45Z
2020-03-13T05:45:11Z,42.805,6.029,13.2979,4.59991,2469.914,2020-3-13T07:45:48Z
2020-03-13T05:48:14Z,42.805,6.029,13.2973,4.59989,2469.923,2020-3-13T07:48:51Z
2020-03-13T05:51:18Z,42.805,6.029,13.2976,4.59983,2469.923,2020-3-13T07:51:55Z
2020-03-13T05:54:21Z,42.805,6.029,13.2974,4.59978,2469.914,2020-3-13T07:54:58Z
2020-03-13T05:57:24Z,42.805,6.029,13.2976,4.59988,2469.914,2020-3-13T07:58:01Z
2020-03-13T06:00:27Z,42.805,6.029,13.2981,4.59991,2469.947,2020-3-13T08:01:04Z
2020-03-13T06:03:30Z,42.805,6.029,13.2974,4.59987,2469.97,2020-3-13T08:04:07Z
2020-03-13T06:06:34Z,42.805,6.029,13.2974,4.59973,2469.984,2020-3-13T08:07:11Z
2020-03-13T06:09:37Z,42.805,6.029,13.2980,4.59980,2469.923,2020-3-13T08:10:14Z
2020-03-13T06:12:40Z,42.805,6.029,13.2975,4.59985,2469.97,2020-3-13T08:13:17Z
2020-03-13T06:15:44Z,42.805,6.029,13.2977,4.59976,2469.9,2020-3-13T08:16:21Z
2020-03-13T06:18:47Z,42.805,6.029,13.2980,4.59983,2469.97,2020-3-13T08:19:24Z
2020-03-13T06:21:50Z,42.805,6.029,13.2976,4.59986,2469.947,2020-3-13T08:22:27Z
2020-03-13T06:24:53Z,42.805,6.029,13.2977,4.59990,2469.984,2020-3-13T08:25:30Z
2020-03-13T06:27:57Z,42.805,6.029,13.2980,4.59987,2469.947,2020-3-13T08:28:33Z
2020-03-13T06:31:00Z,42.805,6.029,13.2979,4.59990,2469.947,2020-3-13T08:31:37Z
2020-03-13T06:34:03Z,42.805,6.029,13.2978,4.59988,2469.96,2020-3-13T08:34:40Z
2020-03-13T06:37:06Z,42.805,6.029,13.2974,4.59988,2469.984,2020-3-13T08:37:43Z
2020-03-13T06:40:10Z,42.805,6.029,13.2973,4.59993,2469.947,2020-3-13T08:40:47Z
2020-03-13T06:43:13Z,42.805,6.029,13.2974,4.59991,2469.97,2020-3-13T08:43:50Z
2020-03-13T06:46:16Z,42.805,6.029,13.2979,4.59991,2469.984,2020-3-13T08:46:53Z
2020-03-13T06:49:19Z,42.805,6.029,13.2981,4.59998,2470.007,2020-3-13T08:49:56Z
2020-03-13T06:52:22Z,42.805,6.029,13.2980,4.59981,2469.993,2020-3-13T08:52:59Z
2020-03-13T06:55:26Z,42.805,6.029,13.2982,4.59993,2470.007,2020-3-13T08:56:03Z
2020-03-13T06:58:29Z,42.805,6.029,13.2979,4.59997,2470.03,2020-3-13T08:59:06Z
2020-03-13T07:01:32Z,42.805,6.029,13.2974,4.59990,2470.017,2020-3-13T09:02:09Z
2020-03-13T07:04:35Z,42.805,6.029,13.2976,4.59985,2470.04,2020-3-13T09:05:12Z
2020-03-13T07:07:39Z,42.805,6.029,13.2976,4.59996,2470.017,2020-3-13T09:08:16Z
2020-03-13T07:10:42Z,42.805,6.029,13.2978,4.59991,2470.053,2020-3-13T09:11:19Z
2020-03-13T07:13:45Z,42.805,6.029,13.2976,4.59996,2469.993,2020-3-13T09:14:22Z
2020-03-13T07:16:48Z,42.805,6.029,13.2977,4.59991,2470.03,2020-3-13T09:17:25Z
2020-03-13T07:19:52Z,42.805,6.029,13.2986,4.59993,2470.053,2020-3-13T09:20:29Z
2020-03-13T07:22:55Z,42.805,6.029,13.2982,4.59995,2470.053,2020-3-13T09:23:32Z
2020-03-13T07:25:58Z,42.805,6.029,13.2976,4.59984,2470.04,2020-3-13T09:26:35Z
2020-03-13T07:29:01Z,42.805,6.029,13.2979,4.59987,2470.063,2020-3-13T09:29:38Z
2020-03-13T07:32:05Z,42.805,6.029,13.2981,4.59986,2470.053,2020-3-13T09:32:42Z
2020-03-13T07:35:08Z,42.805,6.029,13.2979,4.59982,2470.053,2020-3-13T09:35:45Z
2020-03-13T07:38:11Z,42.805,6.029,13.2977,4.59981,2470.053,2020-3-13T09:38:48Z
2020-03-13T07:41:15Z,42.805,6.029,13.2979,4.59981,2470.077,2020-3-13T09:41:52Z
2020-03-13T07:44:18Z,42.805,6.029,13.2978,4.59981,2470.063,2020-3-13T09:44:55Z
2020-03-13T07:47:21Z,42.805,6.029,13.2979,4.59981,2470.063,2020-3-13T09:47:58Z
2020-03-13T07:50:24Z,42.805,6.029,13.2982,4.59981,2470.063,2020-3-13T09:51:01Z
2020-03-13T07:53:28Z,42.805,6.029,13.2976,4.59991,2470.087,2020-3-13T09:54:05Z
2020-03-13T07:56:31Z,42.805,6.029,13.2971,4.59978,2470.11,2020-3-13T09:57:08Z
2020-03-13T07:59:34Z,42.805,6.029,13.2974,4.59979,2470.1,2020-3-13T10:00:11Z
2020-03-13T08:02:37Z,42.805,6.029,13.2976,4.59981,2470.124,2020-3-13T10:03:14Z
2020-03-13T08:05:40Z,42.805,6.029,13.2975,4.59992,2470.077,2020-3-13T10:06:17Z
2020-03-13T08:08:44Z,42.805,6.029,13.2975,4.59985,2470.124,2020-3-13T10:09:21Z
2020-03-13T08:11:47Z,42.805,6.029,13.2979,4.59983,2470.11,2020-3-13T10:12:24Z
2020-03-13T08:14:50Z,42.805,6.029,13.2974,4.59981,2470.11,2020-3-13T10:15:27Z
2020-03-13T08:17:54Z,42.805,6.029,13.2986,4.59988,2470.077,2020-3-13T10:18:31Z
2020-03-13T08:20:57Z,42.805,6.029,13.2976,4.59983,2470.11,2020-3-13T10:21:34Z
2020-03-13T08:24:00Z,42.805,6.029,13.2977,4.59978,2470.087,2020-3-13T10:24:37Z
2020-03-13T08:27:03Z,42.805,6.029,13.2976,4.59981,2470.11,2020-3-13T10:27:40Z
2020-03-13T08:30:06Z,42.805,6.029,13.2978,4.59977,2470.11,2020-3-13T10:30:43Z
2020-03-13T08:33:10Z,42.805,6.029,13.2977,4.59983,2470.11,2020-3-13T10:33:47Z
2020-03-13T08:36:13Z,42.805,6.029,13.2976,4.59978,2470.147,2020-3-13T10:36:50Z
2020-03-13T08:39:16Z,42.805,6.029,13.2975,4.59980,2470.087,2020-3-13T10:39:53Z
2020-03-13T08:42:19Z,42.805,6.029,13.2974,4.59978,2470.11,2020-3-13T10:42:56Z
2020-03-13T08:45:23Z,42.805,6.029,13.2976,4.59982,2470.11,2020-3-13T10:46:00Z
2020-03-13T08:48:26Z,42.805,6.029,13.2976,4.59980,2470.11,2020-3-13T10:49:03Z
2020-03-13T08:51:29Z,42.805,6.029,13.2977,4.59982,2470.147,2020-3-13T10:52:06Z
2020-03-13T08:54:32Z,42.805,6.029,13.2976,4.59985,2470.096,2020-3-13T10:55:09Z
2020-03-13T08:57:36Z,42.805,6.029,13.2976,4.59980,2470.171,2020-3-13T10:58:13Z
2020-03-13T09:00:39Z,42.805,6.029,13.2976,4.59980,2470.11,2020-3-13T11:01:16Z
2020-03-13T09:03:42Z,42.805,6.029,13.2975,4.59981,2470.11,2020-3-13T11:04:19Z
2020-03-13T09:06:46Z,42.805,6.029,13.2975,4.59982,2470.11,2020-3-13T11:07:23Z
2020-03-13T09:09:49Z,42.805,6.029,13.2976,4.59982,2470.156,2020-3-13T11:10:26Z
2020-03-13T09:12:52Z,42.805,6.029,13.2976,4.59981,2470.124,2020-3-13T11:13:29Z
2020-03-13T09:15:55Z,42.805,6.029,13.2976,4.59981,2470.133,2020-3-13T11:16:32Z
2020-03-13T09:18:59Z,42.805,6.029,13.2980,4.59983,2470.11,2020-3-13T11:19:36Z
2020-03-13T09:22:02Z,42.805,6.029,13.2979,4.59981,2470.133,2020-3-13T11:22:39Z
2020-03-13T09:25:05Z,42.805,6.029,13.2976,4.59978,2470.11,2020-3-13T11:25:42Z
2020-03-13T09:28:09Z,42.805,6.029,13.2976,4.59989,2470.124,2020-3-13T11:28:46Z
2020-03-13T09:31:12Z,42.805,6.029,13.2979,4.59981,2470.156,2020-3-13T11:31:49Z
2020-03-13T09:34:15Z,42.805,6.029,13.2976,4.59986,2470.11,2020-3-13T11:34:52Z
2020-03-13T09:37:18Z,42.805,6.029,13.2979,4.59981,2470.1,2020-3-13T11:37:55Z
2020-03-13T09:40:21Z,42.805,6.029,13.2975,4.59978,2470.11,2020-3-13T11:40:58Z
2020-03-13T09:43:25Z,42.805,6.029,13.2978,4.59981,2470.133,2020-3-13T11:44:02Z
2020-03-13T09:46:28Z,42.805,6.029,13.2974,4.59981,2470.156,2020-3-13T11:47:05Z
2020-03-13T09:49:31Z,42.805,6.029,13.2974,4.59983,2470.156,2020-3-13T11:50:08Z
2020-03-13T09:52:34Z,42.805,6.029,13.2975,4.59981,2470.133,2020-3-13T11:53:11Z
2020-03-13T09:55:38Z,42.805,6.029,13.2973,4.59978,2470.124,2020-3-13T11:56:15Z
2020-03-13T09:58:41Z,42.805,6.029,13.2974,4.59982,2470.133,2020-3-13T11:59:18Z
2020-03-13T10:01:44Z,42.805,6.029,13.2973,4.59988,2470.11,2020-3-13T12:02:21Z
2020-03-13T10:04:48Z,42.805,6.029,13.2977,4.59983,2470.147,2020-3-13T12:05:25Z
2020-03-13T10:07:51Z,42.805,6.029,13.2973,4.59986,2470.156,2020-3-13T12:08:28Z
2020-03-13T10:10:54Z,42.805,6.029,13.2973,4.59980,2470.156,2020-3-13T12:11:31Z
2020-03-13T10:13:57Z,42.805,6.029,13.2973,4.59981,2470.124,2020-3-13T12:14:34Z
2020-03-13T10:17:01Z,42.805,6.029,13.2969,4.59982,2470.124,2020-3-13T12:17:38Z
2020-03-13T10:20:04Z,42.805,6.029,13.2973,4.59979,2470.11,2020-3-13T12:20:41Z
2020-03-13T10:23:07Z,42.805,6.029,13.2973,4.59985,2470.156,2020-3-13T12:23:44Z
2020-03-13T10:26:10Z,42.805,6.029,13.2974,4.59986,2470.11,2020-3-13T12:26:47Z
2020-03-13T10:29:13Z,42.805,6.029,13.2971,4.59977,2470.087,2020-3-13T12:29:50Z
2020-03-13T10:32:17Z,42.805,6.029,13.2974,4.59981,2470.11,2020-3-13T12:32:54Z
2020-03-13T10:35:20Z,42.805,6.029,13.2972,4.59976,2470.11,2020-3-13T12:35:57Z
2020-03-13T10:38:23Z,42.805,6.029,13.2975,4.59981,2470.114,2020-3-13T12:39:00Z
2020-03-13T10:41:26Z,42.805,6.029,13.2976,4.59977,2470.11,2020-3-13T12:42:03Z
2020-03-13T10:44:30Z,42.805,6.029,13.2969,4.59977,2470.147,2020-3-13T12:45:07Z
2020-03-13T10:47:33Z,42.805,6.029,13.2971,4.59976,2470.171,2020-3-13T12:48:10Z
2020-03-13T10:50:36Z,42.805,6.029,13.2968,4.59973,2470.124,2020-3-13T12:51:13Z
2020-03-13T10:53:39Z,42.805,6.029,13.2974,4.59978,2470.133,2020-3-13T12:54:16Z
2020-03-13T10:56:43Z,42.805,6.029,13.2976,4.59978,2470.1,2020-3-13T12:57:20Z
2020-03-13T10:59:46Z,42.805,6.029,13.2972,4.59982,2470.11,2020-3-13T13:00:23Z
2020-03-13T11:02:49Z,42.805,6.029,13.2974,4.59991,2470.11,2020-3-13T13:03:26Z
2020-03-13T11:05:53Z,42.805,6.029,13.2981,4.59992,2470.11,2020-3-13T13:06:30Z
2020-03-13T11:08:56Z,42.805,6.029,13.2976,4.59984,2470.11,2020-3-13T13:09:33Z
2020-03-13T11:11:59Z,42.805,6.029,13.2978,4.59991,2470.087,2020-3-13T13:12:36Z
2020-03-13T11:15:02Z,42.805,6.029,13.2975,4.59984,2470.11,2020-3-13T13:15:39Z
2020-03-13T11:18:06Z,42.805,6.029,13.2978,4.59986,2470.1,2020-3-13T13:18:43Z
2020-03-13T11:21:09Z,42.805,6.029,13.2979,4.59981,2470.124,2020-3-13T13:21:46Z
2020-03-13T11:24:13Z,42.805,6.029,13.2969,4.59978,2470.087,2020-3-13T13:24:50Z
2020-03-13T11:27:16Z,42.805,6.029,13.2976,4.59983,2470.1,2020-3-13T13:27:53Z
2020-03-13T11:30:19Z,42.805,6.029,13.2972,4.59991,2470.087,2020-3-13T13:30:56Z
2020-03-13T11:33:22Z,42.805,6.029,13.2974,4.59985,2470.11,2020-3-13T13:33:59Z
2020-03-13T11:36:26Z,42.805,6.029,13.2979,4.59995,2470.087,2020-3-13T13:37:03Z
2020-03-13T11:39:29Z,42.805,6.029,13.2972,4.59980,2470.087,2020-3-13T13:40:06Z
2020-03-13T11:42:32Z,42.805,6.029,13.2978,4.59995,2470.087,2020-3-13T13:43:09Z
2020-03-13T11:45:35Z,42.805,6.029,13.2972,4.59986,2470.087,2020-3-13T13:46:12Z
2020-03-13T11:48:39Z,42.805,6.029,13.2975,4.59987,2470.063,2020-3-13T13:49:16Z
2020-03-13T11:51:42Z,42.805,6.029,13.2974,4.59981,2470.11,2020-3-13T13:52:19Z
2020-03-13T11:54:45Z,42.805,6.029,13.2968,4.59984,2470.077,2020-3-13T13:55:22Z
2020-03-13T11:57:48Z,42.805,6.029,13.2974,4.59981,2470.1,2020-3-13T13:58:25Z
2020-03-13T12:00:52Z,42.805,6.029,13.2975,4.59986,2470.077,2020-3-13T14:01:29Z
2020-03-13T12:03:55Z,42.805,6.029,13.2971,4.59986,2470.077,2020-3-13T14:04:32Z
2020-03-13T12:06:58Z,42.805,6.029,13.2972,4.59976,2470.087,2020-3-13T14:07:35Z
2020-03-13T12:10:01Z,42.805,6.029,13.2971,4.59985,2470.063,2020-3-13T14:10:38Z
2020-03-13T12:13:04Z,42.805,6.029,13.2983,4.59988,2470.087,2020-3-13T14:13:41Z
2020-03-13T12:16:08Z,42.805,6.029,13.2973,4.59999,2470.053,2020-3-13T14:16:45Z
2020-03-13T12:19:11Z,42.805,6.029,13.2975,4.59999,2470.049,2020-3-13T14:19:48Z
2020-03-13T12:22:14Z,42.805,6.029,13.2979,4.60001,2470.063,2020-3-13T14:22:51Z
2020-03-13T12:25:17Z,42.805,6.029,13.2983,4.59998,2470.063,2020-3-13T14:25:54Z
2020-03-13T12:28:21Z,42.805,6.029,13.2978,4.59989,2470.04,2020-3-13T14:28:58Z
2020-03-13T12:31:24Z,42.805,6.029,13.2976,4.59996,2470.063,2020-3-13T14:32:01Z
2020-03-13T12:34:27Z,42.805,6.029,13.2977,4.60004,2470.063,2020-3-13T14:35:04Z
2020-03-13T12:37:31Z,42.805,6.029,13.2969,4.59982,2470.077,2020-3-13T14:38:08Z
2020-03-13T12:40:34Z,42.805,6.029,13.2976,4.60004,2470.1,2020-3-13T14:41:11Z
2020-03-13T12:43:37Z,42.805,6.029,13.2973,4.59992,2470.03,2020-3-13T14:44:14Z
2020-03-13T12:46:40Z,42.805,6.029,13.2974,4.59998,2470.053,2020-3-13T14:47:17Z
2020-03-13T12:49:43Z,42.805,6.029,13.2979,4.60005,2470.04,2020-3-13T14:50:20Z
2020-03-13T12:52:47Z,42.805,6.029,13.2979,4.59990,2470.017,2020-3-13T14:53:24Z
2020-03-13T12:55:50Z,42.805,6.029,13.2971,4.59978,2470.03,2020-3-13T14:56:27Z
2020-03-13T12:58:53Z,42.805,6.029,13.2975,4.59985,2470.017,2020-3-13T14:59:30Z
2020-03-13T13:01:57Z,42.805,6.029,13.2969,4.59988,2470.04,2020-3-13T15:02:34Z
2020-03-13T13:05:00Z,42.805,6.029,13.2979,4.59988,2469.993,2020-3-13T15:05:37Z
2020-03-13T13:08:04Z,42.805,6.029,13.2977,4.59990,2470.053,2020-3-13T15:08:41Z
2020-03-13T13:11:07Z,42.805,6.029,13.2971,4.59987,2470.017,2020-3-13T15:11:44Z
2020-03-13T13:14:10Z,42.805,6.029,13.2971,4.59986,2470.007,2020-3-13T15:14:47Z
2020-03-13T13:17:14Z,42.805,6.029,13.2970,4.59986,2470.03,2020-3-13T15:17:51Z
2020-03-13T13:20:17Z,42.805,6.029,13.2980,4.59993,2469.97,2020-3-13T15:20:54Z
2020-03-13T13:23:20Z,42.805,6.029,13.2970,4.59986,2469.97,2020-3-13T15:23:57Z
2020-03-13T13:26:23Z,42.805,6.029,13.2981,4.59989,2469.993,2020-3-13T15:27:00Z
2020-03-13T13:29:26Z,42.805,6.029,13.2968,4.59995,2470.007,2020-3-13T15:30:03Z
2020-03-13T13:32:30Z,42.805,6.029,13.2976,4.59988,2470.053,2020-3-13T15:33:07Z
2020-03-13T13:35:33Z,42.805,6.029,13.2976,4.59987,2469.993,2020-3-13T15:36:10Z
2020-03-13T13:38:36Z,42.805,6.029,13.2976,4.59981,2469.993,2020-3-13T15:39:13Z
2020-03-13T13:41:39Z,42.805,6.029,13.2976,4.59978,2469.97,2020-3-13T15:42:16Z
2020-03-13T13:44:42Z,42.805,6.029,13.2986,4.59992,2469.993,2020-3-13T15:45:19Z
2020-03-13T13:47:46Z,42.805,6.029,13.2975,4.59983,2469.993,2020-3-13T15:48:23Z
2020-03-13T13:50:49Z,42.805,6.029,13.2976,4.59983,2469.993,2020-3-13T15:51:26Z
2020-03-13T13:53:52Z,42.805,6.029,13.2969,4.59983,2469.96,2020-3-13T15:54:29Z
2020-03-13T13:56:55Z,42.805,6.029,13.2977,4.59983,2469.97,2020-3-13T15:57:32Z
2020-03-13T13:59:59Z,42.805,6.029,13.2981,4.59986,2469.984,2020-3-13T16:00:36Z
2020-03-13T14:03:02Z,42.805,6.029,13.2980,4.59988,2469.97,2020-3-13T16:03:39Z
2020-03-13T14:06:05Z,42.805,6.029,13.2977,4.59982,2469.97,2020-3-13T16:06:42Z
2020-03-13T14:09:08Z,42.805,6.029,13.2979,4.59986,2470.007,2020-3-13T16:09:45Z
2020-03-13T14:12:11Z,42.805,6.029,13.2979,4.59986,2469.947,2020-3-13T16:12:48Z
2020-03-13T14:15:15Z,42.805,6.029,13.2975,4.59980,2469.97,2020-3-13T16:15:52Z
2020-03-13T14:18:18Z,42.805,6.029,13.2975,4.59983,2469.947,2020-3-13T16:18:55Z
2020-03-13T14:21:21Z,42.805,6.029,13.2981,4.59983,2469.984,2020-3-13T16:21:58Z
2020-03-13T14:24:25Z,42.805,6.029,13.2974,4.59990,2469.97,2020-3-13T16:25:02Z
2020-03-13T14:27:28Z,42.805,6.029,13.2978,4.59984,2469.97,2020-3-13T16:28:05Z
2020-03-13T14:30:31Z,42.805,6.029,13.2974,4.59991,2469.947,2020-3-13T16:31:08Z
2020-03-13T14:33:34Z,42.805,6.029,13.2976,4.59989,2469.947,2020-3-13T16:34:11Z
2020-03-13T14:36:38Z,42.805,6.029,13.2978,4.59989,2469.96,2020-3-13T16:37:15Z
2020-03-13T14:39:41Z,42.805,6.029,13.2975,4.59988,2469.947,2020-3-13T16:40:18Z
2020-03-13T14:42:44Z,42.805,6.029,13.2974,4.59999,2469.984,2020-3-13T16:43:21Z
2020-03-13T14:45:47Z,42.805,6.029,13.2974,4.59986,2469.923,2020-3-13T16:46:24Z
2020-03-13T14:48:51Z,42.805,6.029,13.2973,4.59997,2469.923,2020-3-13T16:49:28Z
2020-03-13T14:51:54Z,42.805,6.029,13.2974,4.59988,2469.96,2020-3-13T16:52:31Z
2020-03-13T14:54:57Z,42.805,6.029,13.2974,4.59986,2469.9,2020-3-13T16:55:34Z
2020-03-13T14:58:00Z,42.805,6.029,13.2979,4.59990,2469.923,2020-3-13T16:58:37Z
2020-03-13T15:01:04Z,42.805,6.029,13.2975,4.59987,2469.96,2020-3-13T17:01:41Z
2020-03-13T15:04:07Z,42.805,6.029,13.2976,4.60001,2469.947,2020-3-13T17:04:44Z
2020-03-13T15:07:10Z,42.805,6.029,13.2974,4.59985,2469.923,2020-3-13T17:07:47Z
2020-03-13T15:10:13Z,42.805,6.029,13.2972,4.59985,2469.923,2020-3-13T17:10:50Z
2020-03-13T15:13:17Z,42.805,6.029,13.2971,4.59986,2469.947,2020-3-13T17:13:54Z